When you browse on this site, cookies collect data to enhance your experience and personalize the content and advertising you see.
Visit our Privacy Policy to learn more. By continuing to use the site, you agree to this use of cookies and data.
  • In Deutschland
  • Länderverzeichnis
  • Für 7 Tage
  • Wassertemperatur
  • Wetterkarte
  • Widgets
  • user-avatar
    Anmelden

    Stündliche Wetter Shusha

    Heute, 25 August, Sonntag

    Zeit Temperatur Niederschläge Wind Luftdruck Luftfeuchtigkeit
    00:00 +20°C° 0 mm 2 m/S 660 mmHg 44%
    01:00 +20°C° 0 mm 2 m/S 660 mmHg 44%
    02:00 +19°C° 0 mm 2 m/S 660 mmHg 45%
    03:00 +19°C° 0 mm 2 m/S 660 mmHg 44%
    04:00 +19°C° 0 mm 2 m/S 660 mmHg 45%
    05:00 +19°C° 0 mm 2 m/S 660 mmHg 45%
    06:00 +19°C° 0 mm 2 m/S 660 mmHg 46%
    07:00 +21°C° 0 mm 2 m/S 661 mmHg 42%
    08:00 +25°C° 0 mm 2 m/S 662 mmHg 38%
    09:00 +27°C° 0 mm 2 m/S 662 mmHg 34%
    10:00 +28°C° 0 mm 3 m/S 662 mmHg 32%
    11:00 +29°C° 0 mm 3 m/S 662 mmHg 31%
    12:00 +30°C° 0 mm 3 m/S 662 mmHg 30%
    13:00 +30°C° 0 mm 4 m/S 662 mmHg 29%
    14:00 +30°C° 0 mm 4 m/S 661 mmHg 29%
    15:00 +32°C° 0 mm 4 m/S 661 mmHg 28%
    16:00 +29°C° 0 mm 4 m/S 661 mmHg 30%
    17:00 +28°C° 0 mm 3 m/S 661 mmHg 32%
    18:00 +27°C° 0 mm 3 m/S 660 mmHg 33%
    19:00 +25°C° 0.1 mm 2 m/S 660 mmHg 37%
    20:00 +23°C° 0.1 mm 2 m/S 660 mmHg 41%
    21:00 +22°C° 0.1 mm 1 m/S 660 mmHg 45%
    22:00 +21°C° 0 mm 1 m/S 660 mmHg 46%
    23:00 +21°C° 0 mm 1 m/S 660 mmHg 46%

    Morgen, 26 August, Montag

    Zeit Temperatur Niederschläge Wind Luftdruck Luftfeuchtigkeit
    00:00 +20°C° 0 mm 1 m/S 660 mmHg 46%
    01:00 +20°C° 0 mm 1 m/S 660 mmHg 45%
    02:00 +20°C° 0 mm 1 m/S 660 mmHg 44%
    03:00 +19°C° 0 mm 1 m/S 660 mmHg 43%
    04:00 +19°C° 0 mm 1 m/S 660 mmHg 43%
    05:00 +19°C° 0 mm 1 m/S 660 mmHg 43%
    06:00 +19°C° 0 mm 1 m/S 661 mmHg 43%
    07:00 +21°C° 0 mm 1 m/S 661 mmHg 37%
    08:00 +23°C° 0 mm 2 m/S 662 mmHg 31%
    09:00 +25°C° 0 mm 2 m/S 662 mmHg 25%
    10:00 +27°C° 0 mm 3 m/S 662 mmHg 24%
    11:00 +28°C° 0 mm 3 m/S 663 mmHg 22%
    12:00 +29°C° 0 mm 4 m/S 663 mmHg 21%
    13:00 +29°C° 0 mm 4 m/S 662 mmHg 21%
    14:00 +29°C° 0 mm 4 m/S 662 mmHg 22%
    15:00 +29°C° 0 mm 5 m/S 662 mmHg 22%
    16:00 +27°C° 0 mm 5 m/S 661 mmHg 27%
    17:00 +26°C° 0 mm 4 m/S 661 mmHg 31%
    18:00 +23°C° 0 mm 4 m/S 661 mmHg 36%
    19:00 +21°C° 0.1 mm 3 m/S 661 mmHg 43%
    20:00 +19°C° 0.1 mm 3 m/S 661 mmHg 51%
    21:00 +17°C° 0.1 mm 2 m/S 661 mmHg 59%
    22:00 +17°C° 0.1 mm 2 m/S 661 mmHg 59%
    23:00 +17°C° 0.1 mm 2 m/S 661 mmHg 58%

    übermorgen, 27 August, Dienstag

    Zeit Temperatur Niederschläge Wind Luftdruck Luftfeuchtigkeit
    00:00 +16°C° 0.1 mm 2 m/S 661 mmHg 58%
    01:00 +16°C° 0 mm 2 m/S 661 mmHg 57%
    02:00 +16°C° 0 mm 2 m/S 661 mmHg 57%
    03:00 +15°C° 0 mm 2 m/S 661 mmHg 56%
    04:00 +15°C° 0.1 mm 1 m/S 661 mmHg 57%
    05:00 +15°C° 0.1 mm 1 m/S 661 mmHg 58%
    06:00 +15°C° 0.1 mm 1 m/S 661 mmHg 59%
    07:00 +17°C° 0 mm 2 m/S 662 mmHg 53%
    08:00 +19°C° 0 mm 2 m/S 662 mmHg 48%
    09:00 +21°C° 0 mm 3 m/S 662 mmHg 43%
    10:00 +22°C° 0 mm 3 m/S 662 mmHg 40%
    11:00 +24°C° 0 mm 3 m/S 662 mmHg 38%
    12:00 +26°C° 0 mm 3 m/S 662 mmHg 35%
    13:00 +26°C° 0 mm 3 m/S 661 mmHg 35%
    14:00 +26°C° 0 mm 3 m/S 661 mmHg 35%
    15:00 +26°C° 0 mm 3 m/S 660 mmHg 35%
    16:00 +25°C° 0 mm 3 m/S 660 mmHg 39%
    17:00 +24°C° 0 mm 2 m/S 660 mmHg 43%
    18:00 +23°C° 0 mm 2 m/S 659 mmHg 47%
    19:00 +21°C° 0 mm 1 m/S 659 mmHg 54%
    20:00 +20°C° 0 mm 1 m/S 659 mmHg 60%
    21:00 +18°C° 0 mm 1 m/S 659 mmHg 66%
    22:00 +18°C° 0 mm 1 m/S 659 mmHg 66%
    23:00 +18°C° 0 mm 1 m/S 659 mmHg 66%

    28 August, Mittwoch

    Zeit Temperatur Niederschläge Wind Luftdruck Luftfeuchtigkeit
    00:00 +18°C° 0 mm 1 m/S 659 mmHg 66%
    01:00 +16°C° 0 mm 1 m/S 659 mmHg 67%
    02:00 +16°C° 0 mm 1 m/S 659 mmHg 68%
    03:00 +16°C° 0 mm 1 m/S 659 mmHg 69%
    04:00 +16°C° 0 mm 1 m/S 659 mmHg 67%
    05:00 +16°C° 0 mm 1 m/S 659 mmHg 65%
    06:00 +16°C° 0 mm 1 m/S 659 mmHg 64%
    07:00 +19°C° 0 mm 1 m/S 660 mmHg 56%
    08:00 +20°C° 0 mm 2 m/S 660 mmHg 48%
    09:00 +24°C° 0 mm 2 m/S 661 mmHg 40%
    10:00 +25°C° 0 mm 2 m/S 661 mmHg 37%
    11:00 +26°C° 0 mm 3 m/S 661 mmHg 34%
    12:00 +27°C° 0 mm 3 m/S 661 mmHg 32%
    13:00 +27°C° 0 mm 3 m/S 660 mmHg 31%
    14:00 +28°C° 0 mm 3 m/S 660 mmHg 30%
    15:00 +28°C° 0 mm 3 m/S 660 mmHg 29%
    16:00 +27°C° 0 mm 3 m/S 660 mmHg 33%
    17:00 +25°C° 0 mm 2 m/S 659 mmHg 36%
    18:00 +24°C° 0 mm 2 m/S 659 mmHg 39%
    19:00 +21°C° 0 mm 2 m/S 659 mmHg 44%
    20:00 +21°C° 0 mm 1 m/S 659 mmHg 49%
    21:00 +19°C° 0 mm 1 m/S 659 mmHg 55%
    22:00 +19°C° 0 mm 1 m/S 659 mmHg 56%
    23:00 +18°C° 0 mm 1 m/S 660 mmHg 57%

    29 August, Donnerstag

    Zeit Temperatur Niederschläge Wind Luftdruck Luftfeuchtigkeit
    00:00 +18°C° 0 mm 1 m/S 660 mmHg 57%
    01:00 +16°C° 0 mm 1 m/S 660 mmHg 58%
    02:00 +16°C° 0 mm 1 m/S 660 mmHg 58%
    03:00 +16°C° 0 mm 1 m/S 659 mmHg 58%
    04:00 +16°C° 0 mm 1 m/S 660 mmHg 58%
    05:00 +16°C° 0 mm 1 m/S 660 mmHg 57%
    06:00 +16°C° 0 mm 1 m/S 660 mmHg 57%
    07:00 +19°C° 0 mm 1 m/S 660 mmHg 51%
    08:00 +21°C° 0 mm 2 m/S 661 mmHg 46%
    09:00 +24°C° 0 mm 2 m/S 661 mmHg 40%
    10:00 +25°C° 0 mm 3 m/S 661 mmHg 39%
    11:00 +26°C° 0 mm 3 m/S 661 mmHg 38%
    12:00 +27°C° 0 mm 3 m/S 661 mmHg 36%
    13:00 +27°C° 0 mm 3 m/S 660 mmHg 36%
    14:00 +27°C° 0 mm 3 m/S 660 mmHg 36%
    15:00 +28°C° 0 mm 3 m/S 659 mmHg 36%
    16:00 +26°C° 0 mm 3 m/S 659 mmHg 40%
    17:00 +25°C° 0 mm 3 m/S 659 mmHg 44%
    18:00 +24°C° 0 mm 3 m/S 659 mmHg 49%
    19:00 +21°C° 0 mm 2 m/S 659 mmHg 56%
    20:00 +19°C° 0 mm 2 m/S 659 mmHg 63%
    21:00 +18°C° 0 mm 1 m/S 659 mmHg 70%
    22:00 +18°C° 0.1 mm 1 m/S 659 mmHg 75%
    23:00 +16°C° 0.1 mm 1 m/S 659 mmHg 80%

    30 August, Freitag

    Zeit Temperatur Niederschläge Wind Luftdruck Luftfeuchtigkeit
    00:00 +15°C° 0.1 mm 1 m/S 659 mmHg 85%
    01:00 +15°C° 0.1 mm 1 m/S 659 mmHg 87%
    02:00 +14°C° 0.1 mm 1 m/S 658 mmHg 89%
    03:00 +14°C° 0.1 mm 1 m/S 658 mmHg 91%
    04:00 +14°C° 0.1 mm 1 m/S 658 mmHg 91%
    05:00 +14°C° 0.1 mm 1 m/S 659 mmHg 91%
    06:00 +15°C° 0.1 mm 1 m/S 659 mmHg 91%
    07:00 +15°C° 0.2 mm 1 m/S 659 mmHg 88%
    08:00 +16°C° 0.2 mm 1 m/S 659 mmHg 85%
    09:00 +17°C° 0.2 mm 2 m/S 659 mmHg 82%
    10:00 +17°C° 0.1 mm 2 m/S 659 mmHg 80%
    11:00 +18°C° 0.1 mm 2 m/S 659 mmHg 78%
    12:00 +18°C° 0.1 mm 3 m/S 659 mmHg 76%
    13:00 +17°C° 0.3 mm 3 m/S 659 mmHg 79%
    14:00 +17°C° 0.3 mm 2 m/S 658 mmHg 82%
    15:00 +16°C° 0.3 mm 2 m/S 658 mmHg 85%
    16:00 +16°C° 0.1 mm 2 m/S 658 mmHg 87%
    17:00 +15°C° 0.1 mm 2 m/S 657 mmHg 89%
    18:00 +15°C° 0.1 mm 1 m/S 657 mmHg 90%
    19:00 +15°C° 0.2 mm 1 m/S 658 mmHg 91%
    20:00 +15°C° 0.2 mm 1 m/S 658 mmHg 92%
    21:00 +15°C° 0.2 mm 1 m/S 659 mmHg 93%
    22:00 +15°C° 0 mm 1 m/S 658 mmHg 93%
    23:00 +14°C° 0 mm 1 m/S 658 mmHg 94%
    Mehr zeigen